sat.trackr.live / text

‹ back to catalog

STARLINK-37528

NORAD 68904 · 2026-097K

PAYLOAD ACTIVE UNKNOWN

§ Identity

Operator
Country
US
Launch date
2026-04-30
Launch site
AFWTR
Launch vehicle
Mass (kg)
RCS (m²)

Purposes: comms

External: N2YO · Heavens-Above · Gunter

§ Orbital elements

Epoch: 2026-05-25T02:07:54.873120Z

Period
92.95 min
Inclination
97.2855°
Eccentricity
0.0001676
Mean motion
15.49193905 rev/d
Perigee alt
417.9 km
Apogee alt
420.2 km
Semi-major
6,797.2 km
B*
1.4387e-3
RAAN
340.8959°
Arg perigee
97.6477°
Mean anomaly
262.4964°
Rev number
394

§ Raw data

STARLINK-375281 68904U 26097K   26145.08882955  .00078962  00000+0  14387-2 0  99902 68904  97.2855 340.8959 0001676  97.6477 262.4964 15.49193905  3948

JSON: /api/v1/satellites/68904 · /tle

For live sub-satellite position, see the globe view (requires WebGL).

§ Visibility from observer

Set your observer location to see the next 7 days of passes ≥ 10°. The values pass through the URL so the page stays shareable.

No JS? Fill the form by hand. The geolocation button needs JavaScript.